Location: Newark
(45.7167°N, 7.8833°E)
Time: 14:54:14
(UTC+00:00)

ISS - Visible Passes

Search period start: 01 April 2020 00:00
Search period end: 11 April 2020 00:00
Orbit: 416 x 423 km, 51.6° (Epoch: 02 April)

Date Brightness Start Highest point End Pass type
(mag) Time Alt. Az. Time Alt. Az. Time Alt. Az.
01 Apr -3.4 18:59:25 10° WNW 19:02:44 55° NNE 19:04:47 20° E visible
01 Apr -1.2 20:36:28 10° W 20:37:45 19° W 20:37:45 19° W visible
02 Apr -3.1 19:48:51 10° WNW 19:52:05 44° SW 19:52:19 43° SSW visible
03 Apr -3.6 19:01:22 10° WNW 19:04:42 70° SSW 19:06:56 19° SE visible
04 Apr -1.6 19:51:24 10° W 19:53:44 18° SW 19:54:34 16° SSW visible
05 Apr -2.1 19:03:32 10° W 19:06:27 28° SW 19:09:18 10° SSE visible
07 Apr -0.8 19:07:00 10° WSW 19:07:57 11° SW 19:08:53 10° SSW visible
